#timestamp,LO_Frequency,Hit,StdDev 
1593626415.0,286047000.4,N
1593626415.9,286047000.4,N
1593626435.8,286047000.6,N
1593626455.6,286047000.8,N
1593626475.4,286047000.5,N
1593626495.3,286047001.2,N
1593626515.1,286046998.8,N
1593626535.9,286046999.8,N
1593626555.7,286047002.7,N
1593626575.5,286047000.2,N
1593626595.4,286047001.0,N
1593626615.2,286047001.2,N
1593626635.0,286047001.0,N
1593626635.9,286047001.0,N
1593626655.8,286046998.4,N
1593626675.6,286047000.6,N
1593626695.5,286047000.3,N
1593626715.3,286047000.7,N
1593626735.2,286047000.2,N
1593626755.9,286046999.8,N
1593626775.7,286047001.7,N
1593626795.6,286047001.3,N
1593626815.4,286047002.5,N
1593626835.2,286047002.6,N
1593626855.1,286047002.0,N
1593626856.0,286047002.0,N
1593626875.8,286047000.2,N
1593626895.7,286047002.4,N
1593626915.5,286047002.6,N
1593626935.3,286046999.7,N
1593626955.2,286047000.2,N
1593626975.0,286047000.0,N
1593626975.9,286047000.0,N
1593626995.7,286046998.2,N
1593627015.6,286046999.9,N
1593627035.4,286047011.9,Y
1593627055.3,286046999.9,P
1593627075.1,286047002.4,P
1593627095.8,286047000.3,N
1593627115.7,286047000.6,N
1593627135.5,286047002.1,N
1593627155.4,286047004.0,Y
1593627175.2,286047002.6,P
1593627195.0,286046999.8,N
1593627195.9,286046999.8,N
1593627215.8,286047000.9,N
1593627235.6,286047000.7,N
1593627255.5,286046998.1,N
1593627275.3,286047000.8,N
1593627295.1,286047000.3,N
1593627315.9,286047001.0,N
1593627335.7,286046998.8,N
1593627355.6,286046998.3,N
1593627375.4,286046999.6,N
1593627395.2,286047000.6,N
1593627415.1,286047000.2,N
1593627416.0,286047000.2,N
1593627435.8,286047000.4,N
1593627455.6,286047000.2,N
1593627475.5,286047000.5,N
1593627495.3,286047000.3,N
1593627515.2,286046998.1,N
1593627535.9,286046998.5,N
1593627555.7,286046998.6,N
1593627575.6,286046998.3,N
1593627595.4,286046998.4,N
1593627615.3,286046998.5,N
1593627635.1,286046999.2,N
1593627636.0,286046999.2,N
1593627655.8,286046999.3,N
1593627675.7,286046999.1,N
1593627695.5,286046998.7,N
1593627715.3,286046998.2,N
1593627735.2,286047000.6,N
1593627755.0,286047002.8,N
1593627755.9,286047002.8,N
1593627775.8,286047000.3,N
1593627795.6,286047000.3,N
1593627815.4,286047001.1,N
1593627835.3,286047000.8,N
1593627855.1,286047000.1,N
1593627875.9,286047000.1,N
1593627895.7,286047000.1,N
1593627915.5,286047002.3,N
1593627935.4,286047002.1,N
1593627955.2,286046999.9,N
1593627975.0,286047000.4,N
1593627975.9,286047000.4,N
1593627995.8,286047001.2,N
1593628015.6,286046998.8,N
1593628035.5,286047000.8,N
1593628055.3,286046998.9,N
1593628075.1,286047001.0,N
1593628095.9,286047000.3,N
1593628115.7,286047000.3,N
1593628135.6,286047000.5,N
1593628155.4,286047001.1,N
1593628175.2,286046998.3,N
1593628195.1,286047001.2,N
1593628196.0,286047001.2,N
1593628215.8,286047000.4,N
1593628235.6,286046999.5,N
1593628255.5,286046997.1,N
1593628275.3,286046997.5,N
1593628295.2,286046996.1,N
1593628315.9,286046995.7,N
1593628335.7,286046996.3,N
1593628355.6,286046996.3,N
1593628375.4,286046998.0,N
1593628395.3,286046998.9,N
1593628415.1,286046999.1,N
1593628416.0,286046999.1,N
1593628435.8,286046997.0,N
1593628455.7,286046997.6,N
1593628475.5,286046996.8,N
1593628495.3,286046998.3,N
1593628515.2,286047000.4,N
1593628535.0,286047002.4,N
1593628535.9,286047002.4,N
1593628555.8,286046999.8,N
1593628575.6,286047000.1,N
1593628595.4,286047000.7,N
1593628615.3,286047000.5,N
1593628635.1,286047001.6,N
1593628655.8,286047002.0,N
1593628675.7,286047004.3,N
1593628695.5,286047003.9,N
1593628715.4,286047003.7,N
1593628735.2,286047003.7,N
1593628755.0,286047003.1,N
1593628755.9,286047003.1,N
1593628775.8,286047003.8,N
1593628795.6,286047006.0,N
1593628815.5,286047003.9,N
1593628835.3,286047001.5,N
1593628855.1,286047000.1,N
1593628875.9,286047002.7,N
1593628895.7,286047002.2,N
1593628915.6,286047002.4,N
1593628935.4,286046999.9,N
1593628955.2,286047001.6,N
1593628975.1,286047001.4,N
1593628976.0,286047001.4,N
1593628995.8,286047001.9,N
1593629015.7,286047000.2,N
1593629035.5,286046998.9,N
1593629055.3,286046998.2,N
1593629075.2,286046998.2,N
1593629095.0,286046997.6,N
1593629095.9,286046997.6,N
1593629115.7,286046996.1,N
1593629135.6,286046995.6,N
1593629155.4,286046996.3,N
1593629175.3,286046991.7,Y
1593629195.1,286046990.1,P
1593629215.8,286046993.1,N
1593629235.7,286046994.5,N
1593629255.5,286046994.1,N
1593629275.4,286046992.1,N
1593629295.2,286046994.7,N
1593629315.0,286046992.0,N
1593629315.9,286046992.0,N
1593629335.8,286046992.1,N
1593629355.6,286046994.6,N
1593629375.4,286046993.3,N
1593629395.3,286046993.7,N
1593629415.1,286046996.3,N
1593629435.9,286046995.3,N
1593629455.7,286046994.9,N
1593629475.5,286046995.6,N
1593629495.4,286046995.2,N
1593629515.2,286046995.8,N
1593629535.1,286046995.2,N
1593629536.0,286046995.2,N
1593629555.8,286046996.2,N
1593629575.6,286046996.2,N
1593629595.5,286046994.9,N
1593629615.3,286046997.6,N
1593629635.1,286046997.4,N
1593629655.9,286046997.9,N
1593629675.7,286046995.4,N
1593629695.6,286046997.8,N
1593629715.4,286046995.2,N
1593629735.2,286046995.5,N
1593629755.1,286046999.4,N
1593629756.0,286046999.4,N
1593629775.8,286046996.5,N
1593629795.7,286046997.9,N
1593629815.5,286046997.4,N
1593629835.3,286046998.0,N
1593629855.2,286046994.9,N
1593629875.0,286046997.8,N
1593629875.9,286046997.8,N
1593629895.7,286046997.8,N
1593629915.6,286046999.5,N
1593629935.4,286046999.6,N
1593629955.3,286046997.2,N
1593629975.1,286046999.2,N
1593629976.0,286046999.2,N
1593629995.8,286046998.5,N
